Location: Tr�vern
(48.0333°N, 4.6000°W)
Time: 03:02:54
(UTC+00:00)

Cosmos 405 Rocket - Pass Details

Date: 14 July 2020
Orbit: 489 x 555 km, 81.3° (Epoch: 04 August)

Event Time Altitude Azimuth Distance (km) Brightness Sun altitude
Exits shadow 02:28:03 23° 245° (WSW) 1,114 3.9 -15.0°
Maximum altitude 02:29:36 32° 288° (WNW) 887 3.7 -14.9°
Drops below altitude 10° 02:33:02 10° 353° (N) 1,721 6.1 -14.6°
Sets 02:35:19 0° 4° (N) 2,601 7.4 -14.4°
